sat.trackr.live / text

‹ back to catalog

STARLINK-35003

NORAD 65413 · 2025-192K

PAYLOAD ACTIVE UNKNOWN

§ Identity

Operator
Country
US
Launch date
2025-08-31
Launch site
AFETR
Launch vehicle
Mass (kg)
RCS (m²)

Purposes: comms

External: N2YO · Heavens-Above · Gunter

§ Orbital elements

Epoch: 2026-05-25T04:47:27.670848Z

Period
94.10 min
Inclination
53.1580°
Eccentricity
0.0000976
Mean motion
15.30226545 rev/d
Perigee alt
474.5 km
Apogee alt
475.8 km
Semi-major
6,853.3 km
B*
6.1467e-4
RAAN
237.2918°
Arg perigee
93.6151°
Mean anomaly
266.4961°
Rev number
4,109

§ Raw data

STARLINK-350031 65413U 25192K   26145.19962582  .00017904  00000+0  61467-3 0  99952 65413  53.1580 237.2918 0000976  93.6151 266.4961 15.30226545 41093

JSON: /api/v1/satellites/65413 · /tle

For live sub-satellite position, see the globe view (requires WebGL).

§ Visibility from observer

Set your observer location to see the next 7 days of passes ≥ 10°. The values pass through the URL so the page stays shareable.

No JS? Fill the form by hand. The geolocation button needs JavaScript.